カタログに戻る

STARLINK-34845

運用中通信SSO
NORAD 65289·PAYLOAD·🇺🇸 United States

打ち上げ Aug 22, 2025 から Vandenberg Space Force Base

Loading…

次のパス (今後24時間)

TLE

最新Source: CelesTrak SupGP

元期: Sep 14, 2026, 21:37 UTC

1 65289C 25184S   26257.90118056 -.00016984  00000+0 -52747-3 0  2576
2 65289  97.2837 305.9357 0000962  89.1698 335.0821 15.33433373    16

AllMySatでSTARLINK-34845をリアルタイム追跡

Download on the App Store